�N����,����,�~����,�C��,���x,�C��,����,���ϕ���,�ő�u�ԕ���,�ő厞����,���˗�,�I�_���x,�n�����x,�ő啗���N��,DTYPE
"17/06/01","00:10",0.0,19.5,93.2,997.4,269.9,0.8,1.8,238.7,0.00,18.4,22.3,"00:09:28",1
"17/06/01","00:20",0.0,19.5,93.1,997.4,297.5,1.2,3.1,345.8,0.00,18.4,22.1,"00:18:32",1
"17/06/01","00:30",0.0,19.4,93.3,997.2,324.1,1.7,3.2,312.2,0.00,18.3,22.1,"00:27:36",1
"17/06/01","00:40",0.0,19.5,93.4,997.4,320.8,1.5,3.3,352.0,0.00,18.4,22.0,"00:31:36",1
"17/06/01","00:50",0.0,19.3,93.5,997.0,298.5,1.5,4.2,319.1,0.00,18.3,21.7,"00:49:44",1
"17/06/01","01:00",0.0,19.1,93.6,996.5,334.9,3.0,5.1,332.7,0.00,18.1,21.2,"00:52:02",1
"17/06/01","01:10",0.0,19.0,93.8,996.7,324.3,2.0,3.7,342.4,0.00,18.0,21.1,"01:00:56",1
"17/06/01","01:20",0.0,19.0,93.9,997.0,324.9,1.0,2.6,320.6,0.00,18.0,21.1,"01:11:52",1
"17/06/01","01:30",0.0,19.0,94.2,996.7,270.3,0.6,1.0,266.7,0.00,18.1,21.3,"01:21:28",1
"17/06/01","01:40",0.0,19.0,94.2,996.7,299.2,0.3,0.8,239.3,0.00,18.1,21.3,"01:30:40",1
"17/06/01","01:50",0.0,19.1,94.2,996.7,29.5,0.6,1.8,47.2,0.00,18.2,21.2,"01:47:20",1
"17/06/01","02:00",0.0,19.0,94.1,996.7,345.5,0.7,1.6,97.6,0.00,18.1,21.2,"01:50:32",1
"17/06/01","02:10",0.0,19.0,94.1,996.7,299.9,0.7,1.1,315.3,0.00,18.1,21.4,"02:07:52",1
"17/06/01","02:20",0.0,18.8,94.2,996.5,285.6,0.8,1.3,298.9,0.00,17.9,21.3,"02:16:24",1
"17/06/01","02:30",0.0,18.8,94.5,996.7,263.1,0.8,1.6,244.5,0.00,17.9,21.3,"02:29:20",1
"17/06/01","02:40",0.0,18.9,94.5,996.5,302.1,0.7,1.1,321.7,0.00,18.0,21.2,"02:34:08",1
"17/06/01","02:50",0.0,18.9,94.7,996.5,328.3,0.8,1.4,336.5,0.00,18.1,21.1,"02:43:44",1
"17/06/01","03:00",0.2,18.9,94.7,996.3,334.4,1.1,1.8,348.6,0.00,18.1,21.2,"02:58:24",1
"17/06/01","03:10",0.0,18.8,94.7,996.5,296.6,1.0,1.4,317.0,0.00,18.0,21.2,"03:00:08",1
"17/06/01","03:20",0.0,18.7,94.8,996.5,284.7,0.8,1.4,334.7,0.00,17.9,21.2,"03:10:24",1
"17/06/01","03:30",0.0,18.6,94.9,995.8,307.6,1.0,1.9,332.6,0.00,17.8,21.3,"03:28:40",1
"17/06/01","03:40",0.0,18.6,95.0,996.3,318.9,1.3,2.5,348.7,0.00,17.8,21.2,"03:37:04",1
"17/06/01","03:50",0.0,18.6,95.1,996.0,300.5,0.8,1.8,333.2,0.00,17.8,21.2,"03:46:00",1
"17/06/01","04:00",0.0,18.5,95.1,996.0,284.3,1.0,1.8,310.3,0.00,17.7,21.1,"03:58:48",1
"17/06/01","04:10",0.0,18.5,95.2,996.3,294.0,1.2,1.8,324.0,0.00,17.8,21.2,"04:08:40",1
"17/06/01","04:20",0.0,18.4,95.3,996.3,310.2,1.3,1.8,314.0,0.00,17.7,21.2,"04:19:04",1
"17/06/01","04:30",0.0,18.4,95.3,996.5,305.0,1.2,1.6,326.0,0.00,17.7,20.9,"04:20:24",1
"17/06/01","04:40",0.0,18.4,95.4,996.3,295.3,1.0,1.6,309.2,0.00,17.7,20.8,"04:36:00",1
"17/06/01","04:50",0.0,18.4,95.4,996.0,298.8,1.2,1.6,311.0,0.00,17.7,21.1,"04:46:08",1
"17/06/01","05:00",0.0,18.3,95.4,996.3,309.5,1.3,1.9,303.5,0.00,17.6,21.0,"04:56:00",1
"17/06/01","05:10",0.0,18.3,95.5,996.3,315.2,1.3,1.8,323.3,0.00,17.6,20.9,"05:01:20",1
"17/06/01","05:20",0.0,18.3,95.5,996.3,300.7,1.3,1.9,307.2,0.00,17.6,20.9,"05:10:48",1
"17/06/01","05:30",0.0,18.3,95.8,996.3,308.6,1.3,1.7,309.2,0.00,17.7,20.9,"05:22:48",1
"17/06/01","05:40",0.0,18.4,95.8,996.3,290.5,1.2,1.7,305.8,0.00,17.8,20.9,"05:30:48",1
"17/06/01","05:50",0.0,18.4,95.9,996.5,298.0,1.2,1.8,324.6,0.00,17.8,20.7,"05:47:12",1
"17/06/01","06:00",0.0,18.6,96.0,996.5,291.9,0.8,1.3,307.1,0.00,18.0,20.8,"05:53:12",1
"17/06/01","06:10",0.0,18.7,95.8,996.7,276.3,0.6,1.0,294.4,0.01,18.1,20.7,"06:00:48",1
"17/06/01","06:20",0.0,18.7,95.8,996.5,296.2,0.7,1.1,325.3,0.02,18.1,20.9,"06:17:44",1
"17/06/01","06:30",0.0,18.9,95.6,996.5,325.0,0.7,1.4,324.3,0.02,18.2,20.9,"06:29:04",1
"17/06/01","06:40",0.0,19.0,95.6,996.5,285.4,0.7,1.1,267.4,0.02,18.3,20.8,"06:39:52",1
"17/06/01","06:50",0.0,19.2,95.7,997.0,293.4,0.6,1.1,323.4,0.04,18.5,20.9,"06:44:56",1
"17/06/01","07:00",0.0,19.6,95.4,996.7,295.1,0.6,1.1,309.3,0.07,18.9,21.1,"06:58:24",1
"17/06/01","07:10",0.0,19.9,95.0,996.5,347.2,0.6,1.7,341.5,0.08,19.1,21.1,"07:00:02",1
"17/06/01","07:20",0.0,20.4,92.0,996.3,347.1,0.2,1.1,352.6,0.13,19.1,21.0,"07:10:08",1
"17/06/01","07:30",0.0,20.8,87.9,996.3,305.0,0.7,1.2,328.0,0.12,18.8,21.2,"07:23:28",1
"17/06/01","07:40",0.0,21.0,87.6,996.3,335.1,0.7,1.3,328.6,0.11,18.9,21.0,"07:34:16",1
"17/06/01","07:50",0.0,21.7,86.0,996.3,335.1,0.7,1.6,262.4,0.19,19.3,21.3,"07:49:28",1
"17/06/01","08:00",0.0,22.3,85.7,996.3,312.6,1.0,2.0,346.9,0.25,19.8,21.6,"07:55:04",1
"17/06/01","08:10",0.0,22.8,82.5,996.3,329.0,0.7,2.2,8.1,0.26,19.7,21.7,"08:07:12",1
"17/06/01","08:20",0.0,22.7,80.9,996.3,284.3,1.0,2.7,217.3,0.28,19.3,22.0,"08:15:44",1
"17/06/01","08:30",0.0,23.2,79.7,996.3,297.0,1.0,2.8,338.9,0.30,19.5,22.0,"08:24:08",1
"17/06/01","08:40",0.0,23.6,77.6,996.5,321.3,1.3,3.5,331.7,0.33,19.5,22.1,"08:31:52",1
"17/06/01","08:50",0.0,23.6,75.7,996.3,292.3,1.3,3.3,341.2,0.33,19.1,22.3,"08:48:48",1
"17/06/01","09:00",0.0,23.8,75.3,995.6,279.0,1.2,2.2,324.3,0.35,19.2,22.5,"08:52:16",1
"17/06/01","09:10",0.0,23.6,72.7,995.8,277.7,1.2,4.1,323.4,0.35,18.5,22.8,"09:09:44",1
"17/06/01","09:20",0.0,24.1,71.3,995.8,264.2,1.3,4.1,230.9,0.41,18.6,23.0,"09:17:20",1
"17/06/01","09:30",0.0,24.3,68.7,995.6,270.9,1.5,3.2,252.1,0.41,18.2,23.2,"09:21:28",1
"17/06/01","09:40",0.0,24.6,67.7,995.3,252.3,1.5,3.9,228.7,0.44,18.3,23.1,"09:36:24",1
"17/06/01","09:50",0.0,24.9,65.8,994.8,253.6,1.3,4.7,352.7,0.48,18.1,23.5,"09:42:24",1
"17/06/01","10:00",0.0,25.1,65.7,994.8,260.7,1.6,3.6,208.8,0.49,18.3,23.8,"09:51:04",1
"17/06/01","10:10",0.0,24.8,65.5,994.6,248.3,1.3,3.9,237.2,0.38,17.9,23.9,"10:06:08",1
"17/06/01","10:20",0.0,25.0,67.0,994.1,277.8,1.5,4.0,337.9,0.44,18.5,24.0,"10:11:28",1
"17/06/01","10:30",0.0,25.3,63.4,994.1,261.1,1.5,3.3,213.8,0.39,17.9,24.3,"10:22:40",1
"17/06/01","10:40",0.0,24.7,65.6,993.9,311.4,1.3,2.6,353.0,0.21,17.9,24.2,"10:36:24",1
"17/06/01","10:50",0.0,25.8,60.5,993.9,311.3,1.2,2.8,355.8,0.46,17.6,24.4,"10:45:04",1
"17/06/01","11:00",0.0,25.8,62.8,993.2,208.8,2.3,5.7,228.9,0.50,18.2,24.6,"10:58:24",1
"17/06/01","11:10",0.2,25.1,64.2,993.2,236.8,1.6,4.0,233.9,0.24,17.9,24.7,"11:00:32",1
"17/06/01","11:20",0.0,26.4,62.0,993.0,259.2,1.2,2.7,234.5,0.46,18.6,24.7,"11:18:24",1
"17/06/01","11:30",0.0,26.8,58.1,992.2,180.2,1.1,2.7,201.1,0.44,17.9,24.8,"11:22:56",1
"17/06/01","11:40",0.0,27.1,57.2,993.0,216.0,1.0,3.6,227.8,0.60,17.9,25.1,"11:36:00",1
"17/06/01","11:50",0.0,27.7,57.2,993.0,115.8,0.8,2.5,171.0,0.54,18.5,25.3,"11:48:32",1
"17/06/01","12:00",0.0,28.0,55.8,992.7,95.8,0.8,2.5,21.1,0.54,18.4,25.6,"11:56:16",1
"17/06/01","12:10",0.0,29.1,51.1,992.5,98.2,0.7,2.2,80.2,0.60,18.0,25.8,"12:00:08",1
"17/06/01","12:20",0.0,28.9,51.6,993.2,59.9,0.8,2.2,335.2,0.62,18.0,25.9,"12:16:56",1
"17/06/01","12:30",0.0,28.8,55.9,992.7,14.1,1.3,3.4,3.1,0.57,19.2,26.3,"12:25:04",1
"17/06/01","12:40",0.0,28.1,51.3,992.5,57.4,1.3,2.8,134.5,0.49,17.2,26.5,"12:31:12",1
"17/06/01","12:50",0.0,28.1,53.0,992.2,58.0,1.1,2.7,36.1,0.38,17.7,26.5,"12:40:32",1
"17/06/01","13:00",0.0,28.7,49.4,992.5,162.4,0.8,2.6,178.8,0.49,17.1,26.7,"12:57:44",1
"17/06/01","13:10",0.0,27.9,50.8,991.8,182.8,1.1,3.3,196.7,0.31,16.8,26.6,"13:03:12",1
"17/06/01","13:20",0.0,29.2,48.3,992.0,173.4,1.1,2.6,192.5,0.54,17.2,26.6,"13:16:00",1
"17/06/01","13:30",0.0,29.1,47.7,992.2,233.1,1.2,2.8,208.6,0.50,16.9,26.4,"13:22:24",1
"17/06/01","13:40",0.0,29.4,47.3,992.0,353.3,1.5,3.2,1.1,0.47,17.1,26.3,"13:30:56",1
"17/06/01","13:50",0.0,29.8,49.5,992.0,173.7,1.7,5.0,199.2,0.55,18.1,26.5,"13:49:44",1
"17/06/01","14:00",0.0,28.6,54.5,991.5,191.7,2.3,5.5,225.2,0.41,18.6,26.4,"13:53:36",1
"17/06/01","14:10",0.0,28.4,55.0,991.3,186.4,2.3,5.2,206.1,0.36,18.5,26.5,"14:08:00",1
"17/06/01","14:20",0.0,27.9,57.3,991.1,216.8,1.6,3.1,169.9,0.22,18.7,26.5,"14:12:16",1
"17/06/01","14:30",0.0,28.4,57.2,991.1,200.7,2.0,4.2,227.2,0.32,19.2,26.2,"14:26:00",1
"17/06/01","14:40",0.0,28.5,54.6,990.6,214.2,2.3,5.2,212.6,0.41,18.5,26.4,"14:35:36",1
"17/06/01","14:50",0.0,27.3,56.9,990.6,246.1,1.5,3.7,223.6,0.15,18.1,26.4,"14:40:32",1
"17/06/01","15:00",0.0,27.2,56.6,990.4,247.1,1.7,4.1,226.5,0.10,17.9,26.4,"14:52:08",1
"17/06/01","15:10",0.0,28.0,58.9,990.1,245.5,1.5,2.8,228.1,0.23,19.3,26.3,"15:01:12",1
"17/06/01","15:20",0.0,27.5,58.1,989.9,192.4,2.5,4.1,208.5,0.18,18.6,26.0,"15:16:56",1
"17/06/01","15:30",0.0,28.0,56.7,989.9,207.6,2.1,4.0,185.6,0.27,18.6,26.0,"15:26:40",1
"17/06/01","15:40",0.0,27.6,56.9,989.9,192.0,2.7,5.2,230.0,0.19,18.3,26.1,"15:36:48",1
"17/06/01","15:50",0.0,27.5,55.6,990.1,219.8,2.2,4.4,215.8,0.20,17.9,26.1,"15:41:20",1
"17/06/01","16:00",0.0,27.4,56.9,989.9,216.2,2.1,5.4,230.4,0.20,18.1,25.8,"15:50:02",1
"17/06/01","16:10",0.0,27.4,56.9,989.9,201.7,2.2,5.4,232.1,0.19,18.1,25.9,"16:06:24",1
"17/06/01","16:20",0.0,27.5,57.4,990.4,199.2,2.0,3.7,199.2,0.20,18.4,26.0,"16:17:52",1
"17/06/01","16:30",0.0,27.6,56.1,990.1,211.8,1.3,4.1,234.8,0.19,18.1,25.9,"16:27:36",1
"17/06/01","16:40",0.0,27.3,56.8,990.1,224.8,1.5,2.9,234.5,0.16,18.0,25.9,"16:32:40",1
"17/06/01","16:50",0.0,26.9,55.4,989.9,247.2,1.8,3.9,230.6,0.13,17.3,25.8,"16:42:08",1
"17/06/01","17:00",0.0,26.9,54.5,990.1,234.3,1.6,3.7,209.0,0.14,17.0,25.9,"16:56:40",1
"17/06/01","17:10",0.0,26.6,54.5,989.6,229.4,1.7,3.3,223.1,0.11,16.7,25.6,"17:06:48",1
"17/06/01","17:20",0.0,26.7,54.2,989.9,194.5,2.1,4.5,230.6,0.09,16.7,25.8,"17:10:08",1
"17/06/01","17:30",0.0,26.6,54.8,989.6,211.4,1.8,3.7,213.3,0.08,16.8,25.4,"17:26:24",1
"17/06/01","17:40",0.0,26.3,53.8,989.9,227.5,1.7,3.5,233.2,0.07,16.2,25.6,"17:37:20",1
"17/06/01","17:50",0.0,26.1,54.3,989.6,231.2,2.2,5.1,228.0,0.06,16.2,25.3,"17:41:12",1
"17/06/01","18:00",0.0,25.9,53.3,989.6,217.5,1.5,4.0,224.4,0.04,15.7,25.2,"17:58:48",1
"17/06/01","18:10",0.0,25.8,53.4,989.4,208.9,1.7,2.7,228.9,0.03,15.7,25.0,"18:00:32",1
"17/06/01","18:20",0.0,25.6,56.3,989.2,208.2,1.3,2.7,194.6,0.02,16.3,25.0,"18:13:36",1
"17/06/01","18:30",0.0,25.5,55.3,989.6,230.5,1.6,3.3,224.3,0.01,15.9,24.9,"18:23:52",1
"17/06/01","18:40",0.0,25.4,55.6,989.4,223.7,1.6,3.1,217.9,0.00,15.9,24.7,"18:32:24",1
"17/06/01","18:50",0.0,25.0,56.4,989.4,207.4,1.2,3.9,214.3,0.00,15.8,24.8,"18:48:24",1
"17/06/01","19:00",0.0,24.8,57.0,989.6,205.1,1.6,3.3,162.6,0.00,15.7,24.7,"18:52:56",1
"17/06/01","19:10",0.0,24.6,57.7,989.9,224.4,2.1,4.7,203.9,0.00,15.8,24.6,"19:09:52",1
"17/06/01","19:20",0.0,24.4,59.3,990.1,227.3,2.0,5.0,225.7,0.00,16.0,24.5,"19:10:08",1
"17/06/01","19:30",0.0,24.1,60.5,990.1,227.0,1.3,3.7,235.0,0.00,16.0,24.2,"19:28:00",1
"17/06/01","19:40",0.2,24.1,61.6,989.9,238.0,1.5,3.6,233.4,0.00,16.3,24.3,"19:30:40",1
"17/06/01","19:50",0.0,23.9,62.2,989.9,261.7,1.0,2.0,279.1,0.00,16.3,24.2,"19:45:20",1
"17/06/01","20:00",0.0,23.8,62.8,990.1,271.0,1.2,2.4,241.6,0.00,16.3,24.1,"19:51:36",1
"17/06/01","20:10",0.0,23.6,65.8,990.6,313.5,1.2,2.2,314.6,0.00,16.9,23.7,"20:04:32",1
"17/06/01","20:20",0.0,23.3,67.7,990.4,332.9,1.6,2.6,318.6,0.00,17.0,23.8,"20:16:00",1
"17/06/01","20:30",0.0,23.1,69.2,990.4,330.7,1.3,2.0,333.8,0.00,17.2,23.9,"20:21:36",1
"17/06/01","20:40",0.0,22.8,70.0,990.6,299.0,1.1,2.0,242.3,0.00,17.1,23.9,"20:39:28",1
"17/06/01","20:50",0.0,22.5,71.2,990.4,319.0,1.6,2.1,332.5,0.00,17.1,23.3,"20:47:04",1
"17/06/01","21:00",0.0,22.5,72.6,990.6,334.0,1.2,2.4,329.0,0.00,17.4,23.6,"20:59:36",1
"17/06/01","21:10",0.0,22.5,71.5,991.1,311.0,1.3,2.8,8.5,0.00,17.1,23.5,"21:03:04",1
"17/06/01","21:20",0.0,22.7,69.2,990.6,317.4,1.3,2.2,338.3,0.00,16.8,23.5,"21:17:36",1
"17/06/01","21:30",0.0,22.7,70.8,990.1,314.6,1.2,2.0,338.2,0.00,17.2,23.3,"21:25:04",1
"17/06/01","21:40",0.0,22.4,70.8,990.6,292.8,1.2,2.1,321.0,0.00,16.9,23.2,"21:34:00",1
"17/06/01","21:50",0.0,22.3,71.8,990.4,296.2,1.2,1.8,323.0,0.00,17.0,23.0,"21:43:12",1
"17/06/01","22:00",0.0,22.1,70.7,990.4,297.0,1.1,1.7,319.4,0.00,16.6,23.2,"21:50:02",1
"17/06/01","22:10",0.0,22.2,70.1,991.1,315.6,1.2,2.6,313.9,0.00,16.5,23.2,"22:09:04",1
"17/06/01","22:20",0.0,21.4,68.8,992.0,317.3,4.4,14.8,331.7,0.00,15.5,23.2,"22:17:28",1
"17/06/01","22:30",0.0,19.5,76.6,992.2,323.8,4.2,8.9,335.7,0.00,15.3,22.8,"22:21:06",1
"17/06/01","22:40",0.0,18.2,82.0,992.7,318.8,3.6,7.7,327.7,0.00,15.1,22.6,"22:36:00",1
"17/06/01","22:50",0.0,17.7,84.5,993.0,290.2,2.1,5.5,328.7,0.00,15.1,22.4,"22:40:56",1
"17/06/01","23:00",0.0,17.5,86.1,992.7,296.2,1.2,2.6,266.3,0.00,15.2,22.1,"22:51:20",1
"17/06/01","23:10",0.0,17.5,86.7,993.0,303.6,1.2,3.4,302.9,0.00,15.3,22.0,"23:01:28",1
"17/06/01","23:20",0.0,17.5,87.3,993.2,280.4,1.2,2.2,239.8,0.00,15.4,21.9,"23:14:40",1
"17/06/01","23:30",0.0,17.5,88.2,992.7,224.4,0.5,2.4,340.1,0.00,15.6,21.9,"23:20:08",1
"17/06/01","23:40",0.0,17.5,89.6,992.2,330.0,0.7,1.4,352.8,0.00,15.8,21.7,"23:38:10",1
"17/06/01","23:50",0.0,17.5,90.1,992.0,328.0,0.6,1.4,338.9,0.00,15.9,21.6,"23:40:24",1
"17/06/01","24:00",0.0,17.4,90.3,991.5,240.5,0.6,1.4,122.6,0.00,15.8,21.6,"23:52:48",1
